• In Belgium
  • List of Countries
  • For 7 days
  • Water Temperature
  • Satellite Maps
  • Weather Map
  • Weather Widgets
  • user-avatar
    Login

    Hourly Weather Satif

    Today, 20 August, Sunday

    Time Temperature Precipitation Wind Pressure Humidity
    00:00 +25°C° 0 mm 2 mps 675 mmHg 60%
    01:00 +25°C° 0 mm 2 mps 675 mmHg 61%
    02:00 +24°C° 0 mm 2 mps 675 mmHg 62%
    03:00 +24°C° 0 mm 2 mps 675 mmHg 63%
    04:00 +24°C° 0 mm 2 mps 675 mmHg 64%
    05:00 +24°C° 0 mm 2 mps 675 mmHg 65%
    06:00 +23°C° 0 mm 2 mps 675 mmHg 65%
    07:00 +25°C° 0 mm 2 mps 676 mmHg 57%
    08:00 +26°C° 0 mm 2 mps 676 mmHg 49%
    09:00 +28°C° 0 mm 3 mps 676 mmHg 42%
    10:00 +29°C° 0 mm 3 mps 677 mmHg 39%
    11:00 +30°C° 0 mm 3 mps 677 mmHg 37%
    12:00 +31°C° 0 mm 3 mps 677 mmHg 35%
    13:00 +31°C° 0 mm 3 mps 677 mmHg 35%
    14:00 +32°C° 0 mm 4 mps 677 mmHg 36%
    15:00 +32°C° 0 mm 4 mps 676 mmHg 37%
    16:00 +30°C° 0 mm 4 mps 676 mmHg 41%
    17:00 +28°C° 0 mm 4 mps 676 mmHg 46%
    18:00 +27°C° 0 mm 5 mps 676 mmHg 51%
    19:00 +26°C° 0 mm 4 mps 676 mmHg 55%
    20:00 +25°C° 0 mm 4 mps 676 mmHg 59%
    21:00 +24°C° 0 mm 3 mps 676 mmHg 63%
    22:00 +24°C° 0 mm 3 mps 676 mmHg 64%
    23:00 +23°C° 0 mm 2 mps 676 mmHg 65%

    Tomorrow, 21 August, Monday

    Time Temperature Precipitation Wind Pressure Humidity
    00:00 +23°C° 0 mm 2 mps 676 mmHg 67%
    01:00 +21°C° 0 mm 2 mps 676 mmHg 67%
    02:00 +21°C° 0 mm 2 mps 675 mmHg 68%
    03:00 +21°C° 0 mm 2 mps 675 mmHg 69%
    04:00 +20°C° 0 mm 2 mps 675 mmHg 68%
    05:00 +20°C° 0 mm 2 mps 675 mmHg 67%
    06:00 +20°C° 0 mm 2 mps 675 mmHg 67%
    07:00 +21°C° 0 mm 2 mps 675 mmHg 58%
    08:00 +24°C° 0 mm 2 mps 676 mmHg 50%
    09:00 +25°C° 0 mm 2 mps 676 mmHg 41%
    10:00 +26°C° 0 mm 2 mps 676 mmHg 38%
    11:00 +27°C° 0 mm 2 mps 676 mmHg 34%
    12:00 +29°C° 0 mm 2 mps 676 mmHg 31%
    13:00 +29°C° 0 mm 3 mps 676 mmHg 30%
    14:00 +29°C° 0 mm 3 mps 676 mmHg 30%
    15:00 +29°C° 0 mm 4 mps 675 mmHg 29%
    16:00 +28°C° 0 mm 4 mps 675 mmHg 32%
    17:00 +27°C° 0 mm 4 mps 675 mmHg 34%
    18:00 +26°C° 0 mm 4 mps 675 mmHg 36%
    19:00 +25°C° 0 mm 3 mps 675 mmHg 39%
    20:00 +24°C° 0 mm 3 mps 675 mmHg 42%
    21:00 +23°C° 0 mm 2 mps 675 mmHg 45%
    22:00 +23°C° 0 mm 2 mps 675 mmHg 46%
    23:00 +23°C° 0 mm 2 mps 675 mmHg 46%

    Day after tomorrow, 22 August, Tuesday

    Time Temperature Precipitation Wind Pressure Humidity
    00:00 +22°C° 0 mm 1 mps 674 mmHg 47%
    01:00 +22°C° 0 mm 1 mps 674 mmHg 48%
    02:00 +21°C° 0 mm 1 mps 674 mmHg 49%
    03:00 +21°C° 0 mm 1 mps 674 mmHg 50%
    04:00 +21°C° 0 mm 1 mps 674 mmHg 49%
    05:00 +21°C° 0 mm 1 mps 674 mmHg 47%
    06:00 +19°C° 0 mm 0 mps 674 mmHg 46%
    07:00 +23°C° 0 mm 1 mps 675 mmHg 41%
    08:00 +25°C° 0 mm 1 mps 675 mmHg 35%
    09:00 +26°C° 0 mm 1 mps 676 mmHg 30%
    10:00 +28°C° 0 mm 2 mps 676 mmHg 28%
    11:00 +29°C° 0 mm 2 mps 676 mmHg 26%
    12:00 +30°C° 0 mm 2 mps 676 mmHg 24%
    13:00 +30°C° 0 mm 3 mps 676 mmHg 25%
    14:00 +30°C° 0 mm 3 mps 675 mmHg 25%
    15:00 +31°C° 0 mm 3 mps 675 mmHg 26%
    16:00 +30°C° 0 mm 3 mps 675 mmHg 29%
    17:00 +29°C° 0 mm 3 mps 675 mmHg 33%
    18:00 +28°C° 0 mm 3 mps 674 mmHg 36%
    19:00 +27°C° 0 mm 3 mps 674 mmHg 41%
    20:00 +26°C° 0 mm 2 mps 674 mmHg 45%
    21:00 +25°C° 0 mm 2 mps 675 mmHg 49%
    22:00 +25°C° 0 mm 1 mps 674 mmHg 50%
    23:00 +24°C° 0 mm 1 mps 674 mmHg 51%

    23 August, Wednesday

    Time Temperature Precipitation Wind Pressure Humidity
    00:00 +24°C° 0 mm 1 mps 674 mmHg 52%
    01:00 +24°C° 0 mm 1 mps 674 mmHg 53%
    02:00 +23°C° 0 mm 1 mps 673 mmHg 54%
    03:00 +21°C° 0 mm 0 mps 673 mmHg 55%
    04:00 +23°C° 0 mm 1 mps 674 mmHg 54%
    05:00 +23°C° 0 mm 1 mps 674 mmHg 52%
    06:00 +23°C° 0 mm 1 mps 674 mmHg 51%
    07:00 +25°C° 0 mm 2 mps 675 mmHg 47%
    08:00 +26°C° 0 mm 2 mps 675 mmHg 42%
    09:00 +28°C° 0 mm 2 mps 676 mmHg 38%
    10:00 +29°C° 0 mm 3 mps 676 mmHg 35%
    11:00 +30°C° 0 mm 3 mps 676 mmHg 32%
    12:00 +31°C° 0 mm 3 mps 676 mmHg 29%
    13:00 +31°C° 0 mm 3 mps 676 mmHg 28%
    14:00 +31°C° 0 mm 3 mps 676 mmHg 28%
    15:00 +33°C° 0 mm 3 mps 675 mmHg 27%
    16:00 +31°C° 0 mm 3 mps 675 mmHg 30%
    17:00 +30°C° 0 mm 3 mps 675 mmHg 32%
    18:00 +30°C° 0 mm 2 mps 675 mmHg 35%
    19:00 +29°C° 0 mm 2 mps 675 mmHg 38%
    20:00 +28°C° 0 mm 2 mps 675 mmHg 41%
    21:00 +27°C° 0 mm 1 mps 675 mmHg 45%
    22:00 +27°C° 0 mm 1 mps 675 mmHg 45%
    23:00 +26°C° 0 mm 1 mps 675 mmHg 45%

    24 August, Thursday

    Time Temperature Precipitation Wind Pressure Humidity
    00:00 +26°C° 0 mm 1 mps 675 mmHg 46%
    01:00 +26°C° 0 mm 1 mps 674 mmHg 46%
    02:00 +25°C° 0 mm 1 mps 674 mmHg 47%
    03:00 +25°C° 0 mm 1 mps 674 mmHg 47%
    04:00 +25°C° 0 mm 2 mps 674 mmHg 47%
    05:00 +25°C° 0 mm 2 mps 674 mmHg 47%
    06:00 +25°C° 0 mm 2 mps 675 mmHg 48%
    07:00 +26°C° 0 mm 3 mps 675 mmHg 44%
    08:00 +28°C° 0 mm 3 mps 676 mmHg 41%
    09:00 +29°C° 0 mm 3 mps 676 mmHg 38%
    10:00 +30°C° 0 mm 3 mps 676 mmHg 35%
    11:00 +31°C° 0 mm 3 mps 676 mmHg 32%
    12:00 +33°C° 0 mm 3 mps 676 mmHg 29%
    13:00 +33°C° 0 mm 3 mps 676 mmHg 28%
    14:00 +34°C° 0 mm 3 mps 676 mmHg 27%
    15:00 +34°C° 0 mm 3 mps 675 mmHg 26%
    16:00 +33°C° 0 mm 3 mps 675 mmHg 27%
    17:00 +32°C° 0 mm 2 mps 675 mmHg 28%
    18:00 +31°C° 0 mm 2 mps 675 mmHg 29%
    19:00 +30°C° 0 mm 2 mps 675 mmHg 31%
    20:00 +30°C° 0 mm 2 mps 675 mmHg 33%
    21:00 +29°C° 0 mm 1 mps 675 mmHg 34%
    22:00 +29°C° 0 mm 2 mps 675 mmHg 35%
    23:00 +28°C° 0 mm 2 mps 675 mmHg 36%

    25 August, Friday

    Time Temperature Precipitation Wind Pressure Humidity
    00:00 +28°C° 0 mm 2 mps 675 mmHg 37%
    01:00 +27°C° 0 mm 2 mps 674 mmHg 39%
    02:00 +27°C° 0 mm 3 mps 674 mmHg 40%
    03:00 +26°C° 0 mm 3 mps 674 mmHg 41%
    04:00 +26°C° 0 mm 3 mps 674 mmHg 43%
    05:00 +26°C° 0 mm 3 mps 674 mmHg 44%
    06:00 +25°C° 0 mm 3 mps 674 mmHg 46%
    07:00 +27°C° 0 mm 3 mps 675 mmHg 42%
    08:00 +28°C° 0 mm 4 mps 675 mmHg 39%
    09:00 +29°C° 0 mm 4 mps 676 mmHg 35%
    10:00 +30°C° 0 mm 4 mps 676 mmHg 33%
    11:00 +32°C° 0 mm 4 mps 675 mmHg 31%
    12:00 +33°C° 0 mm 4 mps 675 mmHg 28%
    13:00 +34°C° 0 mm 4 mps 675 mmHg 27%
    14:00 +34°C° 0 mm 4 mps 675 mmHg 26%
    15:00 +34°C° 0 mm 3 mps 674 mmHg 26%
    16:00 +34°C° 0 mm 3 mps 674 mmHg 27%
    17:00 +33°C° 0 mm 3 mps 674 mmHg 28%
    18:00 +31°C° 0 mm 3 mps 674 mmHg 30%
    19:00 +31°C° 0 mm 3 mps 674 mmHg 31%
    20:00 +30°C° 0 mm 2 mps 674 mmHg 33%
    21:00 +29°C° 0 mm 2 mps 674 mmHg 35%
    22:00 +29°C° 0 mm 2 mps 674 mmHg 36%
    23:00 +28°C° 0 mm 2 mps 674 mmHg 36%
    Show more